#timestamp,LO_Frequency,Hit,StdDev 
1708797615.3,286046996.9,P
1708797635.1,286046997.8,P
1708797655.8,286046998.0,P
1708797675.7,286046997.6,Y
1708797695.5,286046998.4,P
1708797715.4,286047000.9,N
1708797735.2,286047000.6,N
1708797755.0,286047002.5,N
1708797755.9,286047002.5,N
1708797775.8,286047003.6,N
1708797795.6,286047004.0,N
1708797815.4,286047002.2,N
1708797835.3,286047002.1,N
1708797855.1,286047003.9,N
1708797875.8,286047004.5,N
1708797895.7,286047005.1,N
1708797915.5,286047001.5,N
1708797935.4,286047003.5,N
1708797955.2,286047001.3,N
1708797975.0,286047000.4,N
1708797975.9,286047000.4,N
1708797995.8,286047000.4,N
1708798015.6,286047000.4,N
1708798035.4,286047000.4,N
1708798055.3,286047000.5,N
1708798075.1,286047000.2,N
1708798095.9,286047000.8,N
1708798115.7,286047000.6,N
1708798135.5,286046998.4,N
1708798155.4,286046999.8,N
1708798175.2,286047000.8,N
1708798195.0,286047000.2,N
1708798195.9,286047000.2,N
1708798215.8,286047002.3,N
1708798235.6,286046998.4,N
1708798255.4,286047001.1,N
1708798275.3,286047004.3,N
1708798295.1,286047005.7,Y
1708798315.9,286047006.7,P
1708798335.7,286047008.6,P
1708798355.5,286047010.6,P
1708798375.4,286047006.5,N
1708798395.2,286047006.3,N
1708798415.0,286047007.0,N
1708798416.0,286047007.0,N
1708798435.8,286047008.7,Y
1708798455.6,286046997.0,P
1708798475.5,286046997.1,N
1708798495.3,286046995.8,N
1708798515.1,286046994.9,N
1708798535.9,286046996.5,N
1708798555.7,286046996.5,N
1708798575.6,286046999.5,N
1708798595.4,286046999.1,N
1708798615.2,286047003.8,N
1708798635.1,286047007.5,N
1708798636.0,286047007.5,N
1708798655.8,286047008.2,N
1708798675.6,286047009.7,N
1708798695.5,286047010.9,N
1708798715.3,286047010.9,N
1708798735.1,286047015.1,N
1708798755.9,286047012.9,N
1708798775.7,286047015.0,N
1708798795.6,286047015.8,N
1708798815.4,286047019.6,N
1708798835.2,286047021.3,N
1708798855.1,286047022.7,N
1708798856.0,286047022.7,N
1708798875.8,286047021.4,N
1708798895.6,286047018.7,N
1708798915.5,286047017.1,N
1708798935.3,286047014.6,N
1708798955.2,286047012.8,N
1708798975.9,286047011.0,N
1708798995.7,286047012.2,N
1708799015.6,286047010.4,N
1708799035.4,286047010.4,N
1708799055.2,286047006.3,N
1708799075.1,286047004.8,N
1708799076.0,286047004.8,N
1708799095.8,286047004.7,N
1708799115.7,286047008.9,N
1708799135.5,286047007.8,N
1708799155.3,286047008.9,N
1708799175.2,286047004.6,N
1708799195.0,286047007.6,N
1708799195.9,286047007.6,N
1708799215.8,286047005.4,N
1708799235.6,286047003.6,N
1708799255.4,286047004.3,N
1708799275.3,286047001.4,N
1708799295.1,286047003.4,N
1708799315.8,286047003.7,N
1708799335.7,286047003.3,N
1708799355.5,286047004.1,N
1708799375.3,286047001.3,N
1708799395.2,286047002.8,N
1708799415.0,286047000.6,N
1708799415.9,286047000.6,N
1708799435.8,286047000.0,N
1708799455.6,286047000.1,N
1708799475.4,286046999.7,N
1708799495.3,286047001.6,N
1708799515.1,286047002.5,N
1708799535.8,286047000.5,N
1708799555.7,286047000.2,N
1708799575.5,286046998.5,N
1708799595.4,286046999.3,N
1708799615.2,286046996.5,N
1708799635.0,286046997.5,N
1708799635.9,286046997.5,N
1708799655.8,286046997.6,N
1708799675.6,286046995.7,N
1708799695.4,286046995.7,N
1708799715.3,286046996.1,N
1708799735.1,286046997.4,N
1708799755.8,286046998.0,N
1708799775.7,286046995.5,N
1708799795.5,286046995.6,N
1708799815.4,286046995.1,N
1708799835.2,286046997.8,N
1708799855.0,286046994.9,N
1708799855.9,286046994.9,N
1708799875.8,286046995.9,N
1708799895.6,286046993.6,N
1708799915.4,286046996.2,N
1708799935.3,286046997.4,N
1708799955.1,286046997.8,N
1708799975.9,286046996.9,N
1708799995.7,286046995.1,N
1708800015.5,286046994.2,N
1708800035.4,286046995.7,N
1708800055.2,286046993.7,Y
1708800075.0,286046998.2,P
1708800075.9,286046998.2,P
1708800095.8,286047000.6,N
1708800115.6,286047002.4,N
1708800135.5,286047000.3,N
1708800155.3,286046998.3,N
1708800175.1,286046996.7,N
1708800195.9,286046996.7,N
1708800215.7,286046997.7,N
1708800235.5,286046993.3,Y
1708800255.4,286046995.3,P
1708800275.2,286046993.7,P
1708800295.0,286046994.1,N
1708800296.0,286046994.1,Y
1708800315.8,286046998.8,P
1708800335.6,286046998.2,N
1708800355.5,286046998.4,N
1708800375.3,286046999.4,N
1708800395.1,286046999.6,N
1708800415.9,286046998.7,N
1708800435.7,286046998.4,N
1708800455.6,286046997.4,N
1708800475.4,286046999.5,N
1708800495.2,286047000.9,N
1708800515.1,286047002.4,N
1708800516.0,286047002.4,N
1708800535.8,286047002.0,N
1708800555.6,286047000.9,N
1708800575.5,286047000.9,N
1708800595.3,286046998.6,N
1708800615.1,286046998.3,N
1708800635.9,286047000.8,N
1708800655.7,286046998.9,N
1708800675.6,286047000.4,N
1708800695.4,286047000.7,N
1708800715.2,286046998.2,N
1708800735.1,286047001.7,N
1708800736.0,286047001.7,N
1708800755.8,286047004.3,N
1708800775.6,286047004.8,N
1708800795.5,286047003.7,N
1708800815.3,286047001.3,N
1708800835.1,286047002.5,N
1708800855.9,286047003.0,N
1708800875.7,286047005.3,N
1708800895.6,286047003.0,N
1708800915.4,286047003.0,N
1708800935.2,286047005.3,N
1708800955.1,286047005.4,N
1708800956.0,286047005.4,N
1708800975.8,286047006.3,N
1708800995.6,286047009.1,Y
1708801015.5,286047005.1,P
1708801035.3,286047001.7,N
1708801055.2,286047004.0,N
1708801075.9,286047004.0,N
1708801095.7,286047001.8,N
1708801115.6,286047005.6,Y
1708801135.4,286047001.2,P
1708801155.2,286047000.0,N
1708801175.1,286047002.6,N
1708801176.0,286047002.6,N
1708801195.8,286047002.5,N
